EW4486 Weather Reports


time (UTC)temp
C
wind
direction
speed
KPH
gust
KPH
rain 1hr
cm
rain 24hr
cm
rain mn
cm
humidity
%
barometer
mb
20260503054558 1 21 3.2 11.3 0.00 0.00 0.00 72 1016.7
20260503053038 2 275 0.0 8.0 0.00 0.00 0.00 70 1016.7
20260503051537 2 335 3.2 11.3 0.00 0.00 0.00 70 1016.6
20260503050036 2 29 4.8 9.7 0.00 0.00 0.00 70 1016.6
20260503044539 2 5 1.6 8.0 0.00 0.00 0.00 69 1016.6
20260503043041 2 114 0.0 9.7 0.00 0.00 0.00 68 1016.6
20260503041529 2 57 0.0 11.3 0.00 0.00 0.00 67 1016.5
20260503040026 2 231 3.2 16.1 0.00 0.00 0.00 67 1016.2
20260503034525 2 232 9.7 19.3 0.00 0.00 0.00 66 1016.0
20260503033024 3 241 11.3 16.1 0.00 0.00 0.00 65 1016.1
20260503031523 3 242 6.4 16.1 0.00 0.00 0.00 65 1015.9
20260503030021 3 12 9.7 17.7 0.00 0.00 0.00 64 1015.7
20260503024520 3 83 9.7 16.1 0.00 0.00 0.00 63 1015.7
20260503023018 3 73 9.7 24.1 0.00 0.00 0.00 62 1015.7
20260503021522 3 315 8.0 17.7 0.00 0.00 0.00 61 1015.6
20260503020016 3 67 1.6 11.3 0.00 0.00 0.00 61 1015.6
20260503014515 3 184 8.0 22.5 0.00 0.00 0.00 60 1015.5
20260503013029 4 20 4.8 14.5 0.00 0.00 0.00 61 1015.3
20260503011513 4 355 8.0 12.9 0.00 0.00 0.00 59 1015.0
20260503010013 4 336 9.7 16.1 0.00 0.00 0.00 59 1015.0
20260503004513 5 53 6.4 19.3 0.00 0.00 0.00 58 1014.9
20260503003012 5 15 8.0 19.3 0.00 0.00 0.00 56 1014.7
20260503001511 5 34 8.0 20.9 0.00 0.00 0.00 53 1014.3
20260503000010 6 28 8.0 24.1 0.00 0.00 0.00 52 1014.2
20260502234510 6 344 8.0 25.7 0.00 0.00 0.00 51 1014.0
20260502233019 6 304 11.3 20.9 0.00 0.00 0.00 50 1014.0
20260502231508 6 355 6.4 20.9 0.00 0.00 0.00 49 1013.8
20260502230007 7 103 8.0 20.9 0.00 0.00 0.00 48 1013.9
20260502224507 7 326 3.2 19.3 0.00 0.00 0.00 48 1013.7
20260502223006 7 210 4.8 24.1 0.00 0.00 0.00 47 1013.9
20260502221509 7 43 8.0 19.3 0.00 0.00 0.00 47 1013.7
20260502220006 7 338 6.4 22.5 0.00 0.00 0.00 47 1013.3
20260502214504 8 111 9.7 20.9 0.00 0.00 0.00 45 1013.1
20260502213003 8 286 9.7 24.1 0.00 0.00 0.00 44 1012.8
20260502211503 9 278 8.0 19.3 0.00 0.00 0.00 41 1012.8
20260502210006 10 203 11.3 33.8 0.00 0.00 0.00 40 1012.7
20260502204502 10 316 4.8 35.4 0.00 0.00 0.00 40 1012.3
20260502203002 10 227 11.3 32.2 0.00 0.00 0.00 38 1012.3
20260502201501 11 306 8.0 17.7 0.00 0.00 0.00 36 1012.2
20260502200106 10 59 8.0 20.9 0.00 0.00 0.00 40 1012.6
20260502200002 10 17 8.0 20.9 0.00 0.00 0.00 39 1012.6
20260502194607 10 274 9.7 25.7 0.00 0.00 0.00 39 1012.2
20260502193059 10 73 4.8 19.3 0.00 0.00 0.00 37 1012.6
20260502191606 11 16 8.0 19.3 0.00 0.00 0.00 38 1012.6
20260502190058 11 151 8.0 17.7 0.00 0.00 0.00 36 1012.6
20260502184602 10 355 9.7 29.0 0.00 0.00 0.00 38 1012.6
20260502183056 10 296 9.7 20.9 0.00 0.00 0.00 36 1012.7
20260502181555 10 40 9.7 32.2 0.00 0.00 0.00 36 1012.7
20260502163050 8 268 8.0 30.6 0.00 0.00 0.00 40 1013.9
20260502161540 8 244 8.0 20.9 0.00 0.00 0.00 40 1014.2
20260502151551 5 41 9.7 25.7 0.00 0.00 0.00 46 1014.3
20260502123023 3 13 14.5 24.1 0.00 0.00 0.00 60 1013.5
20260502121511 3 44 12.9 24.1 0.00 0.00 0.00 62 1013.2
20260502114505 3 29 14.5 24.1 0.00 0.00 0.00 60 1013.4
20260502113004 4 51 11.3 24.1 0.00 0.00 0.00 60 1013.3
20260502111501 4 38 9.7 20.9 0.00 0.00 0.00 62 1013.0
20260502110059 4 22 12.9 19.3 0.00 0.00 0.00 67 1013.0
20260502104558 4 350 12.9 19.3 0.00 0.00 0.00 68 1013.0
20260502103105 4 57 11.3 20.9 0.00 0.00 0.00 76 1012.9
20260502101611 4 52 12.9 24.1 0.00 0.00 0.00 77 1013.0
20260502100118 4 40 14.5 29.0 0.00 0.00 0.00 79 1013.0
20260502070030 6 19 6.4 16.1 0.00 0.00 0.00 81 1013.0
20260502064529 6 57 9.7 16.1 0.00 0.00 0.00 80 1013.2